• en Suisse
  • Liste des pays
  • À 7 jours
  • Température de l'eau
  • Carte satellitaire
  • Carte météo
  • Widgets météo
  • user-avatar
    Se connecter

    Météo par heure à Recife

    Ce jour, 15 Novembre, Jeudi

    Heure Température Précipitation Vent Pression Humidité
    00:00 +27°C° 0 mm 3 m/s 757 mmHg 78%
    01:00 +27°C° 0 mm 3 m/s 757 mmHg 79%
    02:00 +27°C° 0.1 mm 3 m/s 757 mmHg 79%
    03:00 +27°C° 0.1 mm 3 m/s 757 mmHg 79%
    04:00 +26°C° 0.1 mm 4 m/s 757 mmHg 79%
    05:00 +27°C° 0.1 mm 4 m/s 757 mmHg 77%
    06:00 +27°C° 0.1 mm 4 m/s 757 mmHg 75%
    07:00 +28°C° 0.1 mm 4 m/s 757 mmHg 73%
    08:00 +29°C° 0.1 mm 4 m/s 758 mmHg 67%
    09:00 +32°C° 0.1 mm 5 m/s 758 mmHg 61%
    10:00 +33°C° 0.1 mm 5 m/s 758 mmHg 54%
    11:00 +33°C° 0 mm 5 m/s 758 mmHg 53%
    12:00 +34°C° 0 mm 6 m/s 758 mmHg 52%
    13:00 +34°C° 0 mm 6 m/s 758 mmHg 51%
    14:00 +33°C° 0 mm 5 m/s 757 mmHg 52%
    15:00 +33°C° 0 mm 5 m/s 757 mmHg 53%
    16:00 +33°C° 0 mm 5 m/s 756 mmHg 55%
    17:00 +32°C° 0 mm 5 m/s 756 mmHg 60%
    18:00 +29°C° 0 mm 4 m/s 757 mmHg 65%
    19:00 +28°C° 0 mm 4 m/s 757 mmHg 70%
    20:00 +28°C° 0 mm 4 m/s 757 mmHg 73%
    21:00 +28°C° 0 mm 4 m/s 758 mmHg 75%
    22:00 +27°C° 0 mm 3 m/s 758 mmHg 78%
    23:00 +27°C° 0.1 mm 3 m/s 758 mmHg 80%

    Demain, 16 Novembre, Vendredi

    Heure Température Précipitation Vent Pression Humidité
    00:00 +27°C° 0.1 mm 3 m/s 758 mmHg 81%
    01:00 +27°C° 0.1 mm 3 m/s 758 mmHg 82%
    02:00 +27°C° 0 mm 3 m/s 757 mmHg 83%
    03:00 +26°C° 0 mm 3 m/s 757 mmHg 84%
    04:00 +26°C° 0 mm 3 m/s 757 mmHg 85%
    05:00 +27°C° 0.1 mm 3 m/s 757 mmHg 83%
    06:00 +27°C° 0.1 mm 3 m/s 758 mmHg 81%
    07:00 +27°C° 0.1 mm 3 m/s 758 mmHg 79%
    08:00 +29°C° 0.1 mm 4 m/s 758 mmHg 73%
    09:00 +30°C° 0.1 mm 4 m/s 759 mmHg 66%
    10:00 +32°C° 0.1 mm 5 m/s 759 mmHg 60%
    11:00 +33°C° 0.1 mm 5 m/s 759 mmHg 59%
    12:00 +33°C° 0.1 mm 5 m/s 759 mmHg 57%
    13:00 +34°C° 0.1 mm 5 m/s 758 mmHg 56%
    14:00 +33°C° 0 mm 5 m/s 758 mmHg 57%
    15:00 +33°C° 0 mm 5 m/s 757 mmHg 59%
    16:00 +33°C° 0 mm 5 m/s 757 mmHg 61%
    17:00 +30°C° 0 mm 5 m/s 757 mmHg 66%
    18:00 +29°C° 0 mm 5 m/s 757 mmHg 71%
    19:00 +28°C° 0 mm 4 m/s 757 mmHg 77%
    20:00 +28°C° 0 mm 4 m/s 758 mmHg 78%
    21:00 +28°C° 0 mm 4 m/s 758 mmHg 80%
    22:00 +28°C° 0 mm 4 m/s 759 mmHg 82%
    23:00 +27°C° 0.1 mm 4 m/s 759 mmHg 83%

    Après-demain, 17 Novembre, Samedi

    Heure Température Précipitation Vent Pression Humidité
    00:00 +27°C° 0.1 mm 4 m/s 758 mmHg 84%
    01:00 +27°C° 0.1 mm 4 m/s 758 mmHg 85%
    02:00 +27°C° 0.2 mm 4 m/s 758 mmHg 85%
    03:00 +27°C° 0.2 mm 4 m/s 758 mmHg 85%
    04:00 +27°C° 0.2 mm 4 m/s 757 mmHg 86%
    05:00 +27°C° 0.2 mm 4 m/s 758 mmHg 84%
    06:00 +27°C° 0.2 mm 5 m/s 758 mmHg 82%
    07:00 +28°C° 0.2 mm 5 m/s 759 mmHg 81%
    08:00 +29°C° 0.1 mm 5 m/s 759 mmHg 74%
    09:00 +30°C° 0.1 mm 5 m/s 759 mmHg 68%
    10:00 +33°C° 0.1 mm 5 m/s 760 mmHg 61%
    11:00 +33°C° 0 mm 5 m/s 759 mmHg 58%
    12:00 +34°C° 0 mm 5 m/s 759 mmHg 55%
    13:00 +34°C° 0 mm 5 m/s 758 mmHg 52%
    14:00 +34°C° 0 mm 5 m/s 758 mmHg 53%
    15:00 +33°C° 0 mm 5 m/s 757 mmHg 55%
    16:00 +33°C° 0 mm 5 m/s 757 mmHg 57%
    17:00 +32°C° 0 mm 5 m/s 757 mmHg 62%
    18:00 +30°C° 0 mm 5 m/s 758 mmHg 67%
    19:00 +28°C° 0 mm 5 m/s 758 mmHg 73%
    20:00 +28°C° 0 mm 5 m/s 758 mmHg 74%
    21:00 +28°C° 0 mm 5 m/s 759 mmHg 76%
    22:00 +28°C° 0 mm 5 m/s 760 mmHg 78%
    23:00 +28°C° 0.1 mm 5 m/s 759 mmHg 77%

    18 Novembre, Dimanche

    Heure Température Précipitation Vent Pression Humidité
    00:00 +28°C° 0.1 mm 5 m/s 759 mmHg 77%
    01:00 +28°C° 0.1 mm 5 m/s 759 mmHg 77%
    02:00 +28°C° 0.1 mm 5 m/s 758 mmHg 77%
    03:00 +28°C° 0.1 mm 5 m/s 758 mmHg 76%
    04:00 +28°C° 0.1 mm 4 m/s 758 mmHg 76%
    05:00 +28°C° 0.1 mm 5 m/s 758 mmHg 75%
    06:00 +28°C° 0.1 mm 5 m/s 758 mmHg 74%
    07:00 +28°C° 0.1 mm 5 m/s 759 mmHg 74%
    08:00 +29°C° 0.1 mm 5 m/s 759 mmHg 68%
    09:00 +32°C° 0.1 mm 6 m/s 759 mmHg 63%
    10:00 +33°C° 0.1 mm 6 m/s 759 mmHg 58%
    11:00 +33°C° 0 mm 6 m/s 759 mmHg 56%
    12:00 +33°C° 0 mm 6 m/s 758 mmHg 55%
    13:00 +34°C° 0 mm 6 m/s 758 mmHg 53%
    14:00 +33°C° 0 mm 6 m/s 757 mmHg 55%
    15:00 +33°C° 0 mm 6 m/s 757 mmHg 57%
    16:00 +32°C° 0 mm 6 m/s 756 mmHg 58%
    17:00 +30°C° 0 mm 5 m/s 757 mmHg 63%
    18:00 +29°C° 0 mm 5 m/s 757 mmHg 67%
    19:00 +28°C° 0 mm 4 m/s 758 mmHg 71%
    20:00 +28°C° 0 mm 4 m/s 758 mmHg 72%
    21:00 +28°C° 0 mm 4 m/s 758 mmHg 74%
    22:00 +27°C° 0 mm 4 m/s 759 mmHg 75%
    23:00 +27°C° 0.1 mm 4 m/s 758 mmHg 76%

    19 Novembre, Lundi

    Heure Température Précipitation Vent Pression Humidité
    00:00 +27°C° 0.1 mm 4 m/s 758 mmHg 77%
    01:00 +27°C° 0.1 mm 4 m/s 757 mmHg 78%
    02:00 +27°C° 0 mm 4 m/s 757 mmHg 79%
    03:00 +27°C° 0 mm 4 m/s 757 mmHg 80%
    04:00 +26°C° 0 mm 3 m/s 757 mmHg 80%
    05:00 +27°C° 0.1 mm 4 m/s 757 mmHg 79%
    06:00 +27°C° 0.1 mm 4 m/s 758 mmHg 77%
    07:00 +28°C° 0.1 mm 4 m/s 758 mmHg 75%
    08:00 +29°C° 0.1 mm 5 m/s 758 mmHg 69%
    09:00 +30°C° 0.1 mm 5 m/s 759 mmHg 62%
    10:00 +33°C° 0.1 mm 5 m/s 759 mmHg 56%
    11:00 +33°C° 0 mm 5 m/s 758 mmHg 55%
    12:00 +33°C° 0 mm 5 m/s 758 mmHg 54%
    13:00 +34°C° 0 mm 5 m/s 757 mmHg 53%
    14:00 +33°C° 0 mm 5 m/s 757 mmHg 54%
    15:00 +33°C° 0 mm 5 m/s 756 mmHg 55%
    16:00 +32°C° 0 mm 5 m/s 756 mmHg 56%
    17:00 +30°C° 0 mm 5 m/s 756 mmHg 61%
    18:00 +29°C° 0 mm 4 m/s 757 mmHg 66%
    19:00 +28°C° 0 mm 4 m/s 757 mmHg 71%
    20:00 +28°C° 0 mm 4 m/s 757 mmHg 73%
    21:00 +28°C° 0 mm 4 m/s 757 mmHg 75%
    22:00 +27°C° 0 mm 3 m/s 758 mmHg 77%
    23:00 +27°C° 0.1 mm 3 m/s 757 mmHg 78%

    20 Novembre, Mardi

    Heure Température Précipitation Vent Pression Humidité
    00:00 +27°C° 0.1 mm 3 m/s 757 mmHg 79%
    01:00 +27°C° 0.1 mm 3 m/s 757 mmHg 80%
    02:00 +27°C° 0.2 mm 3 m/s 757 mmHg 81%
    03:00 +27°C° 0.2 mm 4 m/s 756 mmHg 82%
    04:00 +27°C° 0.2 mm 4 m/s 756 mmHg 83%
    05:00 +27°C° 0.1 mm 4 m/s 757 mmHg 81%
    06:00 +27°C° 0.1 mm 4 m/s 757 mmHg 80%
    07:00 +28°C° 0.1 mm 5 m/s 758 mmHg 78%
    08:00 +29°C° 0.1 mm 5 m/s 758 mmHg 71%
    09:00 +30°C° 0.1 mm 5 m/s 758 mmHg 65%
    10:00 +33°C° 0.1 mm 5 m/s 758 mmHg 58%
    11:00 +33°C° 0 mm 5 m/s 758 mmHg 56%
    12:00 +34°C° 0 mm 6 m/s 757 mmHg 54%
    13:00 +34°C° 0 mm 6 m/s 757 mmHg 51%
    14:00 +34°C° 0 mm 6 m/s 757 mmHg 53%
    15:00 +33°C° 0 mm 6 m/s 756 mmHg 54%
    16:00 +33°C° 0 mm 6 m/s 756 mmHg 56%
    17:00 +32°C° 0 mm 6 m/s 756 mmHg 61%
    18:00 +30°C° 0 mm 5 m/s 757 mmHg 67%
    19:00 +28°C° 0 mm 5 m/s 757 mmHg 73%
    20:00 +28°C° 0.2 mm 5 m/s 757 mmHg 75%
    21:00 +28°C° 0.2 mm 5 m/s 758 mmHg 76%
    22:00 +28°C° 0.2 mm 5 m/s 758 mmHg 78%
    23:00 +28°C° 0.2 mm 5 m/s 758 mmHg 80%
    Voir plus